7 * 24
多渠道服务支持
STARLINK-4214是美国SpaceX公司星链(Starlink)星座的第二代低轨通信卫星,于2022年6月17日发射入轨。它依托星链星座部署,旨在为全球偏远地区、海洋和极地等场景提供低延迟高速宽带互联网服务。作为星链大规模组网的组成部分,该卫星大概率搭载激光通信终端,可实现星间高速互联,支撑天地一体化网络构建,是SpaceX推进全球卫星互联网覆盖计划的重要节点。
美国
(US)
| 数据来源 | 国际轨道数据 |
| 星历时间: | 2026-09-05T03:17:57+0800 13小时前 查看轨道信息 |
| 半长轴: | 6840.878km |
| 偏心率: | 0.0001063 |
| 轨道倾角: | 53.160° |
| 近地点辐角 | 87.060° |
| 升交点赤经 | 279.293° |
| 平近点角 | 273.052° |
| 近地点: | 462.013km |
| 远地点: | 463.469km |
| 周期: | 93.849分钟 |
| 每日圈数: | 15.343873 |